{"data":{"norad_id":64611,"epoch":"2026-09-20T23:06:10.738656Z","epoch_age_seconds":91630,"freshness":"FRESH","line1":"1 64611U 25137T   26263.96262429  .00023181  00000+0  69477-3 0  9995","line2":"2 64611  53.1551 145.2622 0001186 103.1501 256.9634 15.34414908 70673","mean_motion":15.34414908,"eccentricity":0.0001186,"inclination_deg":53.1551,"raan_deg":145.2622,"arg_perigee_deg":103.1501,"mean_anomaly_deg":256.9634,"bstar":0.00069477,"rev_number":7067,"period_min":93.846846279468,"perigee_km":461.84761245074,"apogee_km":463.47024924554,"semimajor_km":6840.7959308481,"source":"CELESTRAK","updated_at":"2026-09-21T09:00:35.394464Z"}}